| time (UTC) | temp C | wind direction | speed KPH | gust KPH | rain 1hr cm | rain 24hr cm | rain mn cm | humidity % | barometer mb |
| 20260502123012 | 10 | 298 | 1.6 | 4.8 | 0.00 | 2.59 | 0.00 | 97 | 1019.6 |
| 20260502121511 | 10 | 339 | 1.6 | 4.8 | 0.00 | 2.59 | 0.00 | 96 | 1019.3 |
| 20260502114506 | 10 | 313 | 1.6 | 4.8 | 0.00 | 3.38 | 0.00 | 96 | 1019.0 |
| 20260502113005 | 10 | 321 | 1.6 | 3.2 | 0.00 | 3.38 | 0.00 | 96 | 1018.8 |
| 20260502111502 | 10 | 343 | 1.6 | 4.8 | 0.00 | 3.38 | 0.00 | 96 | 1018.5 |
| 20260502104558 | 10 | 355 | 1.6 | 6.4 | 0.00 | 3.81 | 0.00 | 96 | 1018.1 |
| 20260502103101 | 10 | 20 | 4.8 | 9.7 | 0.00 | 3.81 | 0.00 | 96 | 1017.9 |
| 20260502101556 | 10 | 346 | 6.4 | 16.1 | 0.00 | 3.81 | 0.00 | 96 | 1017.9 |
| 20260502071534 | 11 | 56 | 6.4 | 11.3 | 0.00 | 4.62 | 0.00 | 93 | 1016.4 |
| 20260502070032 | 11 | 39 | 6.4 | 11.3 | 0.00 | 4.62 | 0.00 | 93 | 1016.6 |
| 20260502064548 | 11 | 360 | 3.2 | 8.0 | 0.00 | 4.62 | 0.00 | 93 | 1016.7 |
| 20260502063035 | 11 | 40 | 8.0 | 20.9 | 0.00 | 4.62 | 0.00 | 93 | 1016.4 |
| 20260502061528 | 11 | 29 | 9.7 | 16.1 | 0.00 | 4.62 | 0.00 | 93 | 1016.5 |
| 20260502060029 | 11 | 26 | 9.7 | 16.1 | 0.00 | 4.62 | 0.00 | 93 | 1016.5 |
| 20260502054530 | 11 | 34 | 6.4 | 16.1 | 0.00 | 4.62 | 0.00 | 93 | 1016.4 |
| 20260502053026 | 11 | 19 | 12.9 | 22.5 | 0.00 | 4.62 | 0.00 | 94 | 1016.7 |
| 20260502051530 | 11 | 29 | 9.7 | 17.7 | 0.00 | 4.62 | 0.00 | 94 | 1016.3 |
| 20260502050026 | 12 | 55 | 8.0 | 20.9 | 0.00 | 4.65 | 4.62 | 94 | 1016.6 |
| 20260502044520 | 12 | 32 | 8.0 | 24.1 | 0.00 | 4.65 | 4.62 | 94 | 1016.6 |
| 20260502043015 | 12 | 29 | 14.5 | 25.7 | 0.00 | 4.65 | 4.62 | 95 | 1016.3 |
| 20260502041515 | 12 | 86 | 12.9 | 22.5 | 0.00 | 4.65 | 4.62 | 95 | 1016.3 |
| 20260502040028 | 12 | 30 | 9.7 | 19.3 | 0.00 | 4.65 | 4.62 | 95 | 1016.3 |
| 20260502034513 | 12 | 22 | 8.0 | 16.1 | 0.00 | 4.65 | 4.62 | 95 | 1016.3 |
| 20260502033013 | 12 | 9 | 14.5 | 22.5 | 0.00 | 4.65 | 4.62 | 95 | 1016.1 |
| 20260502031511 | 12 | 27 | 11.3 | 19.3 | 0.00 | 4.65 | 4.62 | 96 | 1016.1 |
| 20260502030009 | 12 | 15 | 12.9 | 24.1 | 0.00 | 4.65 | 4.62 | 96 | 1015.8 |
| 20260502024505 | 12 | 5 | 12.9 | 22.5 | 0.00 | 4.65 | 4.62 | 96 | 1015.6 |
| 20260502023002 | 12 | 9 | 14.5 | 24.1 | 0.00 | 4.65 | 4.62 | 96 | 1015.2 |
| 20260502021558 | 12 | 10 | 9.7 | 19.3 | 0.00 | 4.65 | 4.62 | 96 | 1014.7 |
| 20260502020112 | 12 | 32 | 12.9 | 25.7 | 0.00 | 4.65 | 4.62 | 96 | 1014.1 |
| 20260502014555 | 12 | 23 | 14.5 | 24.1 | 0.03 | 4.65 | 4.62 | 96 | 1014.0 |
| 20260502013053 | 12 | 28 | 9.7 | 16.1 | 0.03 | 4.65 | 4.62 | 97 | 1013.9 |
| 20260502011554 | 12 | 33 | 4.8 | 12.9 | 0.08 | 4.65 | 4.62 | 97 | 1014.1 |
| 20260502010050 | 12 | 11 | 9.7 | 22.5 | 0.08 | 4.65 | 4.62 | 97 | 1013.9 |
| 20260502004555 | 12 | 33 | 11.3 | 22.5 | 0.08 | 4.62 | 4.60 | 96 | 1013.9 |
| 20260502003051 | 13 | 355 | 16.1 | 24.1 | 0.13 | 4.62 | 4.60 | 96 | 1013.6 |
| 20260502001623 | 13 | 19 | 9.7 | 19.3 | 0.25 | 4.57 | 4.55 | 96 | 1013.9 |
| 20260502000043 | 13 | 15 | 12.9 | 20.9 | 0.25 | 4.57 | 4.55 | 96 | 1013.6 |
| 20260501234540 | 13 | 360 | 9.7 | 19.3 | 0.28 | 4.55 | 4.52 | 96 | 1013.3 |
| 20260501233039 | 13 | 337 | 12.9 | 20.9 | 0.38 | 4.50 | 4.47 | 96 | 1012.7 |
| 20260501231539 | 14 | 10 | 8.0 | 22.5 | 0.28 | 4.32 | 4.29 | 96 | 1012.6 |
| 20260501230041 | 14 | 28 | 11.3 | 27.4 | 0.28 | 4.32 | 4.29 | 96 | 1011.7 |
| 20260501224545 | 14 | 38 | 16.1 | 24.1 | 0.23 | 4.27 | 4.24 | 96 | 1010.4 |
| 20260501223033 | 14 | 43 | 11.3 | 20.9 | 0.20 | 4.11 | 4.09 | 96 | 1011.4 |
| 20260501221533 | 14 | 51 | 20.9 | 33.8 | 0.23 | 4.04 | 4.01 | 96 | 1009.8 |
| 20260501220034 | 14 | 73 | 17.7 | 35.4 | 0.30 | 4.04 | 4.01 | 97 | 1009.6 |
| 20260501214529 | 14 | 59 | 14.5 | 27.4 | 0.36 | 4.04 | 4.01 | 97 | 1010.8 |
| 20260501213027 | 14 | 84 | 17.7 | 25.7 | 0.33 | 3.91 | 3.89 | 97 | 1010.7 |
| 20260501211526 | 15 | 38 | 9.7 | 19.3 | 0.25 | 3.81 | 3.78 | 97 | 1011.2 |
| 20260501210032 | 15 | 36 | 11.3 | 27.4 | 0.20 | 3.73 | 3.71 | 97 | 1011.2 |
| 20260501204524 | 15 | 312 | 9.7 | 25.7 | 0.15 | 3.66 | 3.63 | 97 | 1011.3 |
| 20260501203024 | 15 | 34 | 19.3 | 33.8 | 0.13 | 3.58 | 3.56 | 96 | 1009.1 |
| 20260501201521 | 15 | 346 | 16.1 | 27.4 | 0.18 | 3.56 | 3.53 | 96 | 1010.4 |
| 20260501200019 | 15 | 360 | 17.7 | 29.0 | 0.15 | 3.53 | 3.51 | 96 | 1010.4 |
| 20260501194518 | 16 | 47 | 12.9 | 20.9 | 0.13 | 3.51 | 3.48 | 95 | 1010.9 |
| 20260501193019 | 16 | 360 | 11.3 | 17.7 | 0.08 | 3.45 | 3.43 | 95 | 1010.9 |
| 20260501191518 | 16 | 30 | 4.8 | 16.1 | 0.00 | 3.38 | 3.35 | 96 | 1010.7 |
| 20260501190019 | 16 | 42 | 12.9 | 19.3 | 0.00 | 3.38 | 3.35 | 96 | 1010.3 |
| 20260501184517 | 16 | 92 | 8.0 | 19.3 | 0.00 | 3.38 | 3.35 | 96 | 1009.8 |
| 20260501183017 | 16 | 59 | 11.3 | 25.7 | 0.00 | 3.38 | 3.35 | 96 | 1009.1 |
| 20260501181522 | 16 | 68 | 17.7 | 38.6 | 0.00 | 3.38 | 3.35 | 98 | 1008.4 |
| 20260501180022 | 16 | 62 | 20.9 | 30.6 | 0.03 | 3.38 | 3.35 | 98 | 1007.9 |
| 20260501174512 | 15 | 78 | 24.1 | 41.8 | 0.03 | 3.38 | 3.35 | 98 | 1008.0 |
| 20260501173017 | 15 | 61 | 12.9 | 20.9 | 0.03 | 3.38 | 3.35 | 98 | 1010.6 |
| 20260501171514 | 15 | 347 | 8.0 | 17.7 | 0.05 | 3.38 | 3.35 | 97 | 1012.0 |
| 20260501170012 | 15 | 30 | 17.7 | 25.7 | 0.05 | 3.35 | 3.33 | 97 | 1011.5 |
| 20260501164509 | 15 | 50 | 11.3 | 24.1 | 0.08 | 3.35 | 3.33 | 98 | 1011.9 |
| 20260501163010 | 15 | 17 | 14.5 | 20.9 | 0.15 | 3.35 | 3.33 | 98 | 1012.3 |
| 20260501161508 | 15 | 57 | 12.9 | 20.9 | 0.20 | 3.33 | 3.30 | 98 | 1012.6 |
| 20260501160008 | 15 | 48 | 14.5 | 22.5 | 0.20 | 3.30 | 3.28 | 98 | 1013.0 |
| 20260501154506 | 15 | 40 | 9.7 | 14.5 | 0.15 | 3.25 | 3.23 | 98 | 1013.4 |
| 20260501153005 | 15 | 346 | 12.9 | 20.9 | 0.10 | 3.20 | 3.17 | 98 | 1013.5 |
| 20260501151504 | 15 | 24 | 11.3 | 19.3 | 0.03 | 3.12 | 3.10 | 98 | 1013.1 |
| 20260501150011 | 15 | 29 | 14.5 | 24.1 | 0.05 | 3.10 | 3.07 | 98 | 1012.4 |
| 20260501144502 | 15 | 28 | 12.9 | 20.9 | 0.15 | 3.10 | 3.07 | 98 | 1012.0 |
| 20260501143002 | 15 | 34 | 16.1 | 22.5 | 0.30 | 3.10 | 3.07 | 98 | 1011.5 |
| 20260501141501 | 15 | 69 | 12.9 | 19.3 | 0.36 | 3.10 | 3.07 | 98 | 1011.9 |
| 20260501140100 | 15 | 80 | 12.9 | 17.7 | 0.41 | 3.05 | 3.02 | 98 | 1012.2 |
| 20260501134600 | 15 | 38 | 3.2 | 9.7 | 0.46 | 2.92 | 2.90 | 98 | 1013.5 |